SCP
0 0 0 0 0 0 0 0 0 0 0 0 0 0 0 -0 -0 -0 -0 -0 -0 -0 0 -0 -0 0 -0 0 0 0 0 0 0 0 0 0 0 0 0 0 0 0 0
0 0 0 0 0 0 0 0 0 0 0 0 0 0 0 -0 -0 -0 -0 -0 -0 -0 -0 -0 -0 -0 0 0 0 0 0 0 0 0 0 0 0 0 0 0 0 0 0
0 0 0 0 0 0 0 0 0 0 0 0 0 0 0 0 -0 -0 -0 -0 -0 -0 -0 -0 -0 -0 0 0 0 0 0 0 0 0 0 0 0 0 0 0 0 0 0
0 0 0 0 0 0 0 0 0 0 0 0 0 0 0 0 0 0 -0 -0 -0 -0 0 0 0 0 0 0 0 0 0 0 0 0 0 0 0 0 0 0 0 0 0
0 0 0 0 0 0 0 0 0 0 0 0 0 0 0 0 0 0 0 0 0 0 0 0 -0 -0 0 0 0 0 0 0 0 0 0 0 0 0 0 0 0 0 0
0 0 0 0 0 0 0 0 0 0 0 0 0 0 0 0 0 0 0 0 0 0 0 0 0 0 0 0 0 0 0 0 0 0 0 0 0 0 0 0 0 0 0
0 0 0 0 0 0 0 0 0 0 0 0 0 0 0 0 0 0 0 0 0 0 0 0 0 0 0 0 0 0 0 0 0 0 0 0 0 0 0 0 0 0 0
0 0 0 0 0 0 0 0 0 0 0 0 0 0 0 0 0 0 0 0 0 0 0 0 0 0 0 0 0 0 0 0 0 0 0 0 0 0 0 0 0 0 0
0 0 0 0 0 0 0 0 0 0 0 0 0 0 0 0 0 0 0 0 0 0 0 0 0 0 0 0 0 0 0 0 0 0 0 0 0 0 0 0 0 0 0
0 0 0 0 0 0 0 0 0 0 0 0 0 0 0 0 0 0 0 0 0 0 0 0 0 0 0 0 0 0 0 0 0 0 0 0 0 0 0 0 0 0 0
0 0 0 0 0 0 0 0 0 0 0 0 0 0 0 0 0 0 0 0 0 0 0 0 0 0 0 0 0 0 0 0 0 0 0 0 0 0 0 0 0 0 0
0 0 0 0 0 0 0 0 0 0 0 0 0 0 0 0 0 0 0 0 0 0 0 0 0 0 0 0 0 0 0 0 0 0 0 0 0 0 0 0 0 0 0
0 0 0 0 0 0 0 0 0 0 0 0 0 0 0 0 0 0 0 0 0 0 0 0 0 0 0 0 0 0 0 0 0 0 0 0 0 0 0 0 0 0 0
0 0 0 0 0 0 0 0 0 0 0 0 0 0 0 0 0 0 0 0 0 0 0 0 0 0 0 0 0 0 0 0 0 0 0 0 0 0 0 0 0 0 0
0 0 0 0 0 0 0 0 0 0 0 0 0 0 0 0 0 0 0 0 0 0 0 0 0 0 0 0 0 0 0 0 0 0 0 0 0 0 0 0 0 0 0
0 0 0 0 0 0 0 0 0 0 0 0 0 0 0 0 0 0 0 0 0 0 0 0 0 0 0 0 0 0 0 0 0 0 0 0 0 0 0 0 0 0 0
0 0 0 0 0 0 0 0 0 0 0 0 0 0 0 0 0 0 0 0 0 0 0 0 0 0 0 0 0 0 0 0 0 0 0 0 0 0 0 0 0 0 0
0 0 0 0 0 0 0 0 0 0 0 0 0 0 0 0 0 0 0 0 0 0 0 0 0 0 0 0 0 0 0 0 0 0 0 0 0 0 0 0 0 0 0
0 0 0 0 0 0 0 0 0 0 0 0 0 0 0 0 0 0 0 0 0 0 0 0 0 0 0 0 0 0 0 0 0 0 0 0 0 0 0 0 0 0 0
0 0 0 0 0 0 0 0 0 0 0 0 0 0 0 0 0 0 0 0 0 0 0 0 0 0 0 0 0 0 0 0 0 0 0 0 0 0 0 0 0 0 0
0 0 0 0 0 0 0 0 0 0 0 0 0 0 0 0 0 0 0 0 0 0 0 0 0 0 0 0 0 0 0 0 0 0 0 0 0 0 0 0 0 0 0
0 0 0 0 0 0 0 0 0 0 0 0 0 0 0 0 0 0 0 0 0 0 0 0 0 0 0 0 0 0 0 0 0 0 0 0 0 0 0 0 0 0 0
0 0 0 0 0 0 0 0 0 0 0 0 0 0 0 0 0 0 0 0 0 0 0 0 0 0 0 0 0 0 0 0 0 0 0 0 0 0 0 0 0 0 0
0 0 0 0 0 0 0 0 0 0 0 0 0 0 0 0 0 0 0 0 0 0 0 0 0 0 0 0 0 0 0 0 0 0 0 0 0 0 0 0 0 0 0
0 0 0 0 0 0 0 0 0 0 0 0 0 0 0 0 0 0 0 0 0 0 0 0 0 0 0 0 0 0 0 0 0 0 0 0 0 0 0 0 0 0 0
0 0 0 0 0 0 0 0 0 0 0 0 0 0 0 0 0 0 0 0 0 0 0 0 0 0 0 0 0 0 0 0 0 0 0 0 0 0 0 0 0 0 0
Wind_Speed_500mb
49 46 41 39 41 39 35 33 29 28 30 31 30 28 27 26 24 21 20 18 16 15 15 15 16 15 13 10 8 7 8 10 7 5 3 2 4 9 16 18 13 8 5
56 50 47 48 44 41 38 32 29 29 27 28 29 28 26 26 22 19 18 18 18 17 15 16 14 12 11 10 8 8 6 6 7 5 4 4 3 7 9 11 11 7 3
54 52 53 48 42 41 36 28 27 23 23 25 25 24 24 24 24 23 20 18 17 17 15 12 9 7 6 6 4 5 6 5 6 6 6 8 8 10 9 8 9 5 3
57 56 53 46 42 38 30 27 27 26 27 28 27 25 25 26 26 21 18 16 14 15 13 11 9 8 7 6 4 4 7 7 8 8 7 9 8 10 5 6 10 6 1
57 57 52 44 38 36 31 31 30 29 29 29 27 26 24 23 21 19 16 15 14 13 12 11 10 10 10 11 11 11 12 12 12 12 12 13 12 12 13 11 8 9 5
58 59 53 45 40 36 35 35 34 33 32 29 27 26 25 23 22 19 17 15 12 11 10 10 10 10 11 12 14 15 16 19 21 22 21 19 19 20 21 20 19 18 14
63 60 57 49 43 39 43 39 38 36 34 32 30 29 28 25 23 21 19 17 16 16 17 17 18 18 18 18 19 18 18 21 23 26 27 26 25 26 26 28 26 26 22
62 62 59 55 48 43 48 44 42 39 36 34 32 30 28 27 25 22 20 19 19 19 19 19 19 20 21 22 24 25 24 25 27 27 27 26 26 28 30 29 27 25 27
60 61 62 59 53 48 48 48 46 43 40 38 36 33 31 27 23 21 20 19 17 16 15 14 14 14 14 17 20 21 22 25 28 31 30 29 29 31 32 31 33 33 27
61 60 62 60 57 55 51 52 50 46 43 41 38 33 29 27 25 23 20 18 16 15 13 12 11 12 13 15 17 19 20 22 26 29 32 33 33 34 36 34 34 33 33
61 62 62 61 59 58 57 55 52 48 46 43 39 36 33 31 28 24 21 19 17 16 15 14 14 15 16 17 18 20 20 22 25 28 30 34 35 36 38 38 37 35 34
69 67 64 62 63 61 62 57 54 51 48 46 43 39 36 32 30 27 24 22 21 20 19 17 17 18 19 21 22 23 23 24 26 28 31 34 35 37 40 41 40 39 38
70 67 65 62 64 66 63 58 55 52 51 49 45 42 38 35 31 28 27 27 25 22 21 20 20 21 23 24 26 27 28 27 28 30 32 35 37 36 38 40 41 40 41
70 66 62 59 63 65 61 59 57 57 56 52 47 44 40 37 34 32 31 29 25 23 22 21 22 23 25 26 27 28 28 29 30 32 33 36 38 38 38 39 38 39 40
73 69 65 60 61 64 65 62 62 60 57 51 49 45 43 40 36 34 32 29 26 25 23 23 24 23 23 23 24 26 28 29 29 31 32 35 38 38 38 35 35 37 35
76 72 70 65 62 63 66 65 64 61 56 55 52 49 45 41 38 35 33 30 27 25 24 23 22 21 22 24 27 29 31 32 32 33 33 33 35 37 35 31 29 20 17
77 77 73 71 67 66 66 65 64 61 61 58 53 49 45 43 41 38 36 32 28 27 25 23 23 24 26 28 30 32 33 35 34 34 34 33 33 33 30 32 27 20 18
79 83 81 77 74 69 67 66 64 62 61 58 55 51 48 45 43 40 37 34 31 29 26 25 26 28 28 31 32 33 34 34 35 35 34 32 32 32 29 30 29 25 20
82 86 87 83 79 73 67 65 64 63 62 58 56 53 50 46 44 41 39 36 33 31 29 29 30 30 32 34 34 34 33 33 34 34 33 32 31 30 29 28 25 23 25
93 92 89 87 83 76 71 66 65 66 64 61 59 55 51 50 48 46 43 40 37 35 34 32 32 33 34 36 36 34 33 33 32 31 31 30 28 26 26 24 23 23 22
96 98 94 93 91 85 81 80 78 79 73 70 65 60 57 54 52 49 45 44 41 38 36 35 35 35 34 35 35 35 30 30 30 27 26 26 24 22 21 22 23 24 25
98 101 98 97 95 91 89 86 84 81 75 72 66 64 60 58 56 51 48 45 42 40 39 38 37 36 35 33 31 33 16 17 20 21 22 21 20 20 20 22 24 25 25
95 101 103 100 97 94 92 90 88 78 73 73 72 68 65 62 59 54 52 48 45 43 42 41 39 38 37 35 32 23 12 10 8 12 17 19 20 21 20 23 23 24 25
95 99 105 103 100 97 97 97 95 90 88 86 80 72 67 63 59 56 54 51 48 46 44 42 41 41 40 36 33 31 31 33 15 9 17 22 25 26 24 26 26 27 28
83 105 106 106 105 101 98 99 95 92 86 80 77 72 69 64 61 57 55 51 49 46 43 43 42 40 40 38 33 31 30 31 33 32 18 24 29 31 31 31 30 32 33
79 98 106 107 108 105 100 101 99 94 87 82 77 75 72 68 63 61 56 51 48 45 43 43 42 39 38 38 35 31 32 29 27 33 34 33 30 32 34 32 31 31 38
Wind_Direction_500mb
174 172 173 174 172 167 165 170 169 164 161 161 159 155 159 160 165 168 169 177 177 183 181 193 193 199 208 208 223 227 264 273 271 259 256 256 344 6 12 15 25 45 111
171 171 170 169 170 175 173 172 162 160 162 161 160 159 157 153 155 164 169 173 180 189 195 183 193 200 226 236 246 248 227 226 235 229 205 233 320 338 352 4 16 40 124
172 168 171 178 181 185 182 182 185 178 168 166 166 165 168 168 163 157 146 142 168 179 181 175 181 193 197 205 211 213 235 237 245 244 238 265 290 306 323 341 9 36 127
175 174 179 187 184 184 185 185 179 173 169 165 163 160 157 157 159 160 161 166 154 151 161 171 179 192 201 209 223 217 233 250 262 268 265 268 278 301 313 333 335 353 337
179 181 185 187 192 195 192 187 180 176 174 171 168 165 167 171 172 173 179 179 184 190 198 204 211 220 231 240 243 240 243 250 259 267 261 260 266 283 292 298 285 293 284
179 189 187 195 199 203 195 191 187 185 184 181 181 179 181 183 184 185 190 194 198 208 219 229 237 247 255 256 253 252 254 258 262 265 264 258 257 266 272 271 268 274 281
179 188 191 195 195 199 198 194 192 191 192 188 185 185 187 187 189 192 196 204 214 225 234 243 250 256 261 266 269 269 269 269 268 266 267 267 264 266 270 267 270 268 258
181 183 190 196 198 208 200 197 197 196 196 195 193 193 194 196 198 202 209 220 227 233 237 241 246 252 258 264 268 269 267 267 269 269 268 267 267 265 267 271 264 262 250
186 187 192 196 199 209 196 199 199 200 201 200 199 198 200 203 209 217 224 228 231 232 237 243 250 257 263 266 268 270 271 269 268 268 267 265 262 262 263 267 263 248 248
191 194 196 198 200 209 201 201 201 202 203 203 204 205 208 211 217 221 226 230 231 233 239 249 259 264 270 272 274 275 274 270 268 268 269 268 266 265 266 266 268 268 256
197 199 200 202 203 210 204 201 202 203 204 205 206 208 212 215 219 225 230 233 235 239 245 254 264 273 279 281 282 282 280 277 275 274 271 270 269 268 267 266 264 263 261
201 202 204 205 209 207 204 202 203 205 206 208 209 211 214 218 222 225 228 233 237 242 250 258 267 277 284 290 292 290 287 283 279 277 276 275 273 272 272 271 267 264 260
205 205 208 213 210 207 203 204 205 206 209 211 212 216 220 224 225 228 234 239 242 245 252 261 271 279 285 288 291 291 290 288 286 282 279 278 278 276 273 271 269 265 261
213 213 212 217 211 207 208 210 210 210 212 215 217 219 223 228 231 233 235 237 242 249 258 267 274 281 286 288 290 291 290 289 287 285 283 281 280 279 278 275 272 266 259
216 217 216 215 211 210 211 213 213 213 216 218 220 223 225 227 228 231 235 238 242 248 257 267 275 279 282 288 291 293 295 295 292 289 286 285 284 281 279 277 270 266 264
222 222 219 215 215 213 215 216 217 218 218 219 222 224 225 225 226 231 236 239 243 250 257 263 267 273 283 288 291 293 294 293 293 292 290 288 286 285 283 276 264 263 261
230 224 224 221 216 217 218 219 220 221 221 222 224 225 225 227 229 230 232 236 242 249 253 258 268 277 284 288 291 294 294 293 292 290 288 287 286 285 280 271 271 238 231
231 228 224 223 222 220 219 220 221 221 222 222 223 225 227 227 228 230 232 233 237 243 250 258 268 276 283 286 289 291 292 293 292 290 287 284 281 280 275 268 264 262 232
234 232 226 224 226 226 224 223 225 225 224 224 225 226 227 229 230 232 234 236 239 243 249 258 267 275 281 285 288 290 289 287 286 285 283 279 277 277 272 267 265 261 254
235 233 231 227 227 226 228 225 226 226 228 226 225 227 230 230 230 231 233 236 240 242 249 259 268 274 281 287 289 289 288 285 283 279 274 273 273 272 268 265 264 266 264
234 231 230 228 228 224 224 222 222 223 222 224 224 225 227 230 232 232 233 237 241 246 253 260 268 275 282 288 293 292 290 284 276 271 267 268 268 264 264 267 268 269 267
233 230 227 228 229 227 226 226 225 225 224 226 226 226 226 228 230 232 235 238 243 249 256 262 267 273 278 282 283 292 291 281 265 261 262 260 254 255 265 273 275 272 264
231 227 229 228 228 227 227 224 225 225 227 225 224 226 227 227 228 230 234 237 242 249 256 261 267 273 276 278 277 265 270 252 280 259 253 249 242 251 262 272 274 271 263
231 229 229 231 229 226 225 223 225 226 223 225 227 228 227 228 229 231 234 238 242 248 255 261 266 272 273 271 267 263 252 252 260 267 246 239 241 250 259 263 266 264 260
234 229 229 229 228 227 226 225 225 226 229 231 229 228 229 229 230 232 236 239 242 249 253 260 266 268 269 267 261 258 255 250 248 247 259 247 246 246 249 256 264 264 259
237 230 230 228 226 225 225 224 224 226 227 225 227 226 227 228 230 233 235 237 243 248 256 260 261 261 263 263 260 254 251 246 248 245 246 249 252 248 248 257 261 265 260
Wind_Speed_850mb
49 46 41 39 41 39 35 33 29 28 30 31 30 28 27 26 24 21 20 18 16 15 15 15 16 15 13 10 8 7 8 10 7 5 3 2 4 9 16 18 13 8 5
56 50 47 48 44 41 38 32 29 29 27 28 29 28 26 26 22 19 18 18 18 17 15 16 14 12 11 10 8 8 6 6 7 5 4 4 3 7 9 11 11 7 3
54 52 53 48 42 41 36 28 27 23 23 25 25 24 24 24 24 23 20 18 17 17 15 12 9 7 6 6 4 5 6 5 6 6 6 8 8 10 9 8 9 5 3
57 56 53 46 42 38 30 27 27 26 27 28 27 25 25 26 26 21 18 16 14 15 13 11 9 8 7 6 4 4 7 7 8 8 7 9 8 10 5 6 10 6 1
57 57 52 44 38 36 31 31 30 29 29 29 27 26 24 23 21 19 16 15 14 13 12 11 10 10 10 11 11 11 12 12 12 12 12 13 12 12 13 11 8 9 5
58 59 53 45 40 36 35 35 34 33 32 29 27 26 25 23 22 19 17 15 12 11 10 10 10 10 11 12 14 15 16 19 21 22 21 19 19 20 21 20 19 18 14
63 60 57 49 43 39 43 39 38 36 34 32 30 29 28 25 23 21 19 17 16 16 17 17 18 18 18 18 19 18 18 21 23 26 27 26 25 26 26 28 26 26 22
62 62 59 55 48 43 48 44 42 39 36 34 32 30 28 27 25 22 20 19 19 19 19 19 19 20 21 22 24 25 24 25 27 27 27 26 26 28 30 29 27 25 27
60 61 62 59 53 48 48 48 46 43 40 38 36 33 31 27 23 21 20 19 17 16 15 14 14 14 14 17 20 21 22 25 28 31 30 29 29 31 32 31 33 33 27
61 60 62 60 57 55 51 52 50 46 43 41 38 33 29 27 25 23 20 18 16 15 13 12 11 12 13 15 17 19 20 22 26 29 32 33 33 34 36 34 34 33 33
61 62 62 61 59 58 57 55 52 48 46 43 39 36 33 31 28 24 21 19 17 16 15 14 14 15 16 17 18 20 20 22 25 28 30 34 35 36 38 38 37 35 34
69 67 64 62 63 61 62 57 54 51 48 46 43 39 36 32 30 27 24 22 21 20 19 17 17 18 19 21 22 23 23 24 26 28 31 34 35 37 40 41 40 39 38
70 67 65 62 64 66 63 58 55 52 51 49 45 42 38 35 31 28 27 27 25 22 21 20 20 21 23 24 26 27 28 27 28 30 32 35 37 36 38 40 41 40 41
70 66 62 59 63 65 61 59 57 57 56 52 47 44 40 37 34 32 31 29 25 23 22 21 22 23 25 26 27 28 28 29 30 32 33 36 38 38 38 39 38 39 40
73 69 65 60 61 64 65 62 62 60 57 51 49 45 43 40 36 34 32 29 26 25 23 23 24 23 23 23 24 26 28 29 29 31 32 35 38 38 38 35 35 37 35
76 72 70 65 62 63 66 65 64 61 56 55 52 49 45 41 38 35 33 30 27 25 24 23 22 21 22 24 27 29 31 32 32 33 33 33 35 37 35 31 29 20 17
77 77 73 71 67 66 66 65 64 61 61 58 53 49 45 43 41 38 36 32 28 27 25 23 23 24 26 28 30 32 33 35 34 34 34 33 33 33 30 32 27 20 18
79 83 81 77 74 69 67 66 64 62 61 58 55 51 48 45 43 40 37 34 31 29 26 25 26 28 28 31 32 33 34 34 35 35 34 32 32 32 29 30 29 25 20
82 86 87 83 79 73 67 65 64 63 62 58 56 53 50 46 44 41 39 36 33 31 29 29 30 30 32 34 34 34 33 33 34 34 33 32 31 30 29 28 25 23 25
93 92 89 87 83 76 71 66 65 66 64 61 59 55 51 50 48 46 43 40 37 35 34 32 32 33 34 36 36 34 33 33 32 31 31 30 28 26 26 24 23 23 22
96 98 94 93 91 85 81 80 78 79 73 70 65 60 57 54 52 49 45 44 41 38 36 35 35 35 34 35 35 35 30 30 30 27 26 26 24 22 21 22 23 24 25
98 101 98 97 95 91 89 86 84 81 75 72 66 64 60 58 56 51 48 45 42 40 39 38 37 36 35 33 31 33 16 17 20 21 22 21 20 20 20 22 24 25 25
95 101 103 100 97 94 92 90 88 78 73 73 72 68 65 62 59 54 52 48 45 43 42 41 39 38 37 35 32 23 12 10 8 12 17 19 20 21 20 23 23 24 25
95 99 105 103 100 97 97 97 95 90 88 86 80 72 67 63 59 56 54 51 48 46 44 42 41 41 40 36 33 31 31 33 15 9 17 22 25 26 24 26 26 27 28
83 105 106 106 105 101 98 99 95 92 86 80 77 72 69 64 61 57 55 51 49 46 43 43 42 40 40 38 33 31 30 31 33 32 18 24 29 31 31 31 30 32 33
79 98 106 107 108 105 100 101 99 94 87 82 77 75 72 68 63 61 56 51 48 45 43 43 42 39 38 38 35 31 32 29 27 33 34 33 30 32 34 32 31 31 38
Wind_Direction_850mb
174 172 173 174 172 167 165 170 169 164 161 161 159 155 159 160 165 168 169 177 177 183 181 193 193 199 208 208 223 227 264 273 271 259 256 256 344 6 12 15 25 45 111
171 171 170 169 170 175 173 172 162 160 162 161 160 159 157 153 155 164 169 173 180 189 195 183 193 200 226 236 246 248 227 226 235 229 205 233 320 338 352 4 16 40 124
172 168 171 178 181 185 182 182 185 178 168 166 166 165 168 168 163 157 146 142 168 179 181 175 181 193 197 205 211 213 235 237 245 244 238 265 290 306 323 341 9 36 127
175 174 179 187 184 184 185 185 179 173 169 165 163 160 157 157 159 160 161 166 154 151 161 171 179 192 201 209 223 217 233 250 262 268 265 268 278 301 313 333 335 353 337
179 181 185 187 192 195 192 187 180 176 174 171 168 165 167 171 172 173 179 179 184 190 198 204 211 220 231 240 243 240 243 250 259 267 261 260 266 283 292 298 285 293 284
179 189 187 195 199 203 195 191 187 185 184 181 181 179 181 183 184 185 190 194 198 208 219 229 237 247 255 256 253 252 254 258 262 265 264 258 257 266 272 271 268 274 281
179 188 191 195 195 199 198 194 192 191 192 188 185 185 187 187 189 192 196 204 214 225 234 243 250 256 261 266 269 269 269 269 268 266 267 267 264 266 270 267 270 268 258
181 183 190 196 198 208 200 197 197 196 196 195 193 193 194 196 198 202 209 220 227 233 237 241 246 252 258 264 268 269 267 267 269 269 268 267 267 265 267 271 264 262 250
186 187 192 196 199 209 196 199 199 200 201 200 199 198 200 203 209 217 224 228 231 232 237 243 250 257 263 266 268 270 271 269 268 268 267 265 262 262 263 267 263 248 248
191 194 196 198 200 209 201 201 201 202 203 203 204 205 208 211 217 221 226 230 231 233 239 249 259 264 270 272 274 275 274 270 268 268 269 268 266 265 266 266 268 268 256
197 199 200 202 203 210 204 201 202 203 204 205 206 208 212 215 219 225 230 233 235 239 245 254 264 273 279 281 282 282 280 277 275 274 271 270 269 268 267 266 264 263 261
201 202 204 205 209 207 204 202 203 205 206 208 209 211 214 218 222 225 228 233 237 242 250 258 267 277 284 290 292 290 287 283 279 277 276 275 273 272 272 271 267 264 260
205 205 208 213 210 207 203 204 205 206 209 211 212 216 220 224 225 228 234 239 242 245 252 261 271 279 285 288 291 291 290 288 286 282 279 278 278 276 273 271 269 265 261
213 213 212 217 211 207 208 210 210 210 212 215 217 219 223 228 231 233 235 237 242 249 258 267 274 281 286 288 290 291 290 289 287 285 283 281 280 279 278 275 272 266 259
216 217 216 215 211 210 211 213 213 213 216 218 220 223 225 227 228 231 235 238 242 248 257 267 275 279 282 288 291 293 295 295 292 289 286 285 284 281 279 277 270 266 264
222 222 219 215 215 213 215 216 217 218 218 219 222 224 225 225 226 231 236 239 243 250 257 263 267 273 283 288 291 293 294 293 293 292 290 288 286 285 283 276 264 263 261
230 224 224 221 216 217 218 219 220 221 221 222 224 225 225 227 229 230 232 236 242 249 253 258 268 277 284 288 291 294 294 293 292 290 288 287 286 285 280 271 271 238 231
231 228 224 223 222 220 219 220 221 221 222 222 223 225 227 227 228 230 232 233 237 243 250 258 268 276 283 286 289 291 292 293 292 290 287 284 281 280 275 268 264 262 232
234 232 226 224 226 226 224 223 225 225 224 224 225 226 227 229 230 232 234 236 239 243 249 258 267 275 281 285 288 290 289 287 286 285 283 279 277 277 272 267 265 261 254
235 233 231 227 227 226 228 225 226 226 228 226 225 227 230 230 230 231 233 236 240 242 249 259 268 274 281 287 289 289 288 285 283 279 274 273 273 272 268 265 264 266 264
234 231 230 228 228 224 224 222 222 223 222 224 224 225 227 230 232 232 233 237 241 246 253 260 268 275 282 288 293 292 290 284 276 271 267 268 268 264 264 267 268 269 267
233 230 227 228 229 227 226 226 225 225 224 226 226 226 226 228 230 232 235 238 243 249 256 262 267 273 278 282 283 292 291 281 265 261 262 260 254 255 265 273 275 272 264
231 227 229 228 228 227 227 224 225 225 227 225 224 226 227 227 228 230 234 237 242 249 256 261 267 273 276 278 277 265 270 252 280 259 253 249 242 251 262 272 274 271 263
231 229 229 231 229 226 225 223 225 226 223 225 227 228 227 228 229 231 234 238 242 248 255 261 266 272 273 271 267 263 252 252 260 267 246 239 241 250 259 263 266 264 260
234 229 229 229 228 227 226 225 225 226 229 231 229 228 229 229 230 232 236 239 242 249 253 260 266 268 269 267 261 258 255 250 248 247 259 247 246 246 249 256 264 264 259
237 230 230 228 226 225 225 224 224 226 227 225 227 226 227 228 230 233 235 237 243 248 256 260 261 261 263 263 260 254 251 246 248 245 246 249 252 248 248 257 261 265 260